Regional Weather Roundup
Issued by NWS Newport/Morehead, NC

Current Version | Previous Version | Text Only | Print | Product List | Glossary On
Versions: 1 2 3 4 5 6 7 8 9 10 11 12 13 14 15 16 17 18 19 20 21 22 23 24 25 26 27 28 29 30 31 32 33 34 35 36 37 38 39 40 41 42 43 44 45 46 47 48 49 50
000 ASUS42 KMHX 191913 RWRMHX WEATHER ROUNDUP FOR EASTERN NORTH CAROLINA NATIONAL WEATHER SERVICE NEWPORT/MOREHEAD CITY NC 300 PM EDT THU OCT 19 2017 NOTE: "FAIR" INDICATES FEW OR NO CLOUDS BELOW 12,000 FEET WITH NO SIGNIFICANT WEATHER AND/OR OBSTRUCTIONS TO VISIBILITY NCZ015>017-031-032-045>047-102-103-192000- NORTH COAST CITY SKY/WX TMP DP RH WIND PRES REMARKS EDENTON FAIR 77 57 50 CALM 30.21F ELIZABETH CITY FAIR 74 57 55 E8 30.20F KITTY HAWK FAIR 72 60 64 CALM 30.20F MANTEO FAIR N/A N/A N/A E6 30.21F $$ NCZ045>047-081-094-103-104-192000- CENTRAL COAST CITY SKY/WX TMP DP RH WIND PRES REMARKS FRISCO FAIR 78 56 46 VRB6 30.19F $$ NCZ095-097-098-100-101-192000- SOUTHERN COAST CITY SKY/WX TMP DP RH WIND PRES REMARKS BEAUFORT FAIR 77 58 51 E7 30.18F CEDAR ISLAND NOT AVBL JACKSONVILLE FAIR 78 58 49 CALM 30.18F PINEY ISLAND N/A N/A N/A N/A NE12 30.19F WILMINGTON FAIR 80 58 46 VRB5 30.19F $$ NCZ011>013-027>030-043-044-078>080-089-090>093-098-192000- COASTAL PLAIN CITY SKY/WX TMP DP RH WIND PRES REMARKS AHOSKIE FAIR 73 54 51 CALM 30.22F CLINTON FAIR 78 53 42 N5 30.21F ELIZABETHTOWN NOT AVBL GOLDSBORO FAIR 79 52 38 W5 30.19F GREENVILLE FAIR 77 50 38 W3 30.22F HAVELOCK FAIR 77 59 53 NE6 30.20F KENANSVILLE FAIR 77 52 41 CALM 30.20F KINSTON FAIR 79 48 34 CALM 30.21F NEW BERN FAIR 79 54 41 CALM 30.20F RICHLANDS PTSUNNY 78 57 48 N5 30.20F ROCKY MOUNT FAIR 74 54 49 W3 30.22F WASHINGTON FAIR 77 52 41 CALM 30.20F WHITEVILLE FAIR 76 58 52 CALM 30.20F $$ AMZ130-135-150-152-154-156-158-170-250-252-270-ANZ085-086-088-633-658-670-192000- MARINE OBSERVATIONS STATION/POSITION TIME TEMP WIND PRES WAVE SWELL AIR SEA DIR/SP/G HT/PER HT/PER (UTC) (F) (DEG/KT/KT) (MB) (FT/S) (FT/S) CHESAPEAKE LIGHT NOT AVBL 64 E VA BEACH 1850 68 69 70/ 2/ 4 1023.5 3/ 8 3/ 8 DUCK 1836 74 70 100/ 6/ 7 1022.6 2 E DUCK 1900 70 N/A 3/ 8 OREGON INLET 1836 71 66 60/ 7/ 9 1022.7 13E OREGON INLT 1848 71 N/A 4/ 9 3/ 9 HATTERAS CG 1836 71 69 20/ 8/ 10 1022.5 DIAMOND BUOY 1850 75 81 30/ 10/ 12 1021.9 5/ 9 5/ 9 CAPE LOOKOUT 1900 73 40/ 10/ 11 1021.8 BEAUFORT LAB 1836 75 70 100/ 7/ 10 1022.4 30 SE NEW RVR IN 1808 74 50/ 14/ 17 1022.3 30 SE NEW RVR IN NOT AVBL 27 SE WRIGHTSVLE 1808 74 76 60/ 14/ 19 1022.5 5 SE WRIGHTSVLE 1808 73 74 70/ 12/ 17 1022.8 225 S CAPE HAT 1850 78 80 40/ 16/ 19 1018.5 6/ 7 3/ 8 41 SE CHARLESTON 1850 75 40/ 16/ 19 1021.4 6/ 9 3/ 9 $$

USA.gov is the U.S. government's official web portal to all federal, state and local government web resources and services.